[[{"header":{"parameterUnit":"m.s-1","parameterCategory":1,"la1":30.2991,"la2":30.254,"lo1":-89.0895,"lo2":-89.0444,"dy":0.0017,"dx":0.0017,"nx":28,"ny":28,"refTime":"2024-02-20T03:00:00:Z","depth":0,"parameterNumber":2,"parameterNumberName":"U-component_of_WINDS"},"data":[0,0,0,0,0,0,0,0,0,0,0,0,0,0,0,0,0,0,0,0,0,0,0,0,0,0,0,0,0,0,0,0,0,0,0,0,0,0,0,0,0,0,0,0,0,0,0,0,0,0,0,0,0,0,0,0,0,0,1.2002,1.2003,0,1.2139,1.2141,1.2142,1.2187,1.2186,1.2186,1.2185,1.2326,1.233,1.2334,0,0,0,0,0,0,0,0,0,0,0,0,0,1.1777,1.1781,1.2001,1.2003,1.2005,1.2139,1.2141,1.2143,1.2187,1.2186,1.2186,1.2185,1.2325,1.233,1.2335,0,0,0,0,0,0,0,0,0,0,0,0,0,1.189,1.1782,1.2001,1.2043,1.2048,1.2138,1.2141,1.2143,1.2187,1.2186,1.2186,1.2185,1.2323,1.2329,1.2336,1.2394,0,0,1.2355,1.2358,0,0,0,0,0,0,0,0,1.1884,1.1899,1.2035,1.204,1.2046,1.2145,1.2113,1.2227,1.2188,1.2135,1.2185,1.2184,1.2266,1.2278,1.2305,1.24,1.2406,1.2356,1.236,1.2363,1.2364,0,0,0,0,0,0,0,1.1876,1.1893,1.2056,1.2037,1.2044,1.2055,1.207,1.2135,1.2204,1.2139,1.2143,1.2158,1.2269,1.2299,1.2309,1.2408,1.2356,1.2361,1.2365,1.2368,1.2558,1.2559,0,0,0,0,0,0,1.1861,1.1886,1.2052,1.206,1.1961,1.206,1.2077,1.2114,1.2203,1.2216,1.2159,1.216,1.2288,1.2301,1.2314,1.2388,1.2362,1.2369,1.2372,1.2557,1.2558,1.2559,0,0,0,0,0,0,1.1856,1.1875,1.2046,1.1974,1.1997,1.2065,1.2106,1.2117,1.2147,1.2218,1.2231,1.2177,1.2288,1.2305,1.2374,1.2393,1.2371,1.2377,1.2555,1.2557,1.2559,1.2535,0,0,0,0,0,0,1.1849,1.1873,1.1896,1.1974,1.2,1.2103,1.2108,1.2121,1.2158,1.2161,1.2238,1.225,1.2289,1.2364,1.238,1.2402,1.2382,1.2554,1.2556,1.2558,1.2535,1.2536,1.2537,0,0,0,0,0,1.1841,1.1884,1.1897,1.1917,1.203,1.2104,1.2119,1.2162,1.216,1.2183,1.2229,1.2248,1.2389,1.237,1.2389,1.2413,1.2553,1.2555,1.2558,1.2534,1.2536,1.2537,0,0,0,0,0,0,1.1806,1.1895,1.191,1.198,1.2034,1.2111,1.2142,1.2163,1.2219,1.2219,1.2271,1.2288,1.2352,1.239,1.2368,1.2474,1.2472,1.2478,1.2447,1.2449,1.245,1.244,1.2388,0,0,0,0,0,1.1806,1.1859,1.1934,1.1988,1.2014,1.2073,1.2107,1.2136,1.2194,1.2217,1.2268,1.2324,1.2381,1.2417,1.2474,1.2541,1.2558,1.2566,1.2568,1.2568,1.2573,1.2611,1.2616,1.2568,1.2568,1.2568,0,0,1.1807,1.1862,1.1892,1.1982,1.2027,1.208,1.2092,1.2148,1.2188,1.2226,1.2294,1.2333,1.2399,1.2467,1.2499,1.25,1.259,1.2572,1.2572,1.2576,1.2614,1.2619,1.2623,1.257,1.2569,1.2569,0,0,1.1836,1.1883,1.1933,1.1978,1.2047,1.2087,1.2099,1.2173,1.2201,1.227,1.2299,1.2348,1.2445,1.249,1.2526,1.2573,1.2592,1.259,1.2596,1.2633,1.2636,1.264,1.2656,1.2661,1.2595,1.2595,1.2594,0,1.1828,1.1909,1.1956,1.201,1.2049,1.2086,1.2137,1.2179,1.2262,1.2288,1.2288,1.241,1.2457,1.2536,1.2548,1.2576,1.2591,1.2581,1.2632,1.2636,1.264,1.2656,1.2662,1.2594,1.2594,1.2594,1.2594,0,1.1896,1.1952,1.1985,1.2064,1.2107,1.2159,1.2213,1.225,1.2276,1.2315,1.2385,1.2443,1.2511,1.2532,1.2558,1.2615,1.2613,1.2622,1.2621,1.2643,1.2659,1.2666,1.2593,1.2593,1.2593,1.2593,0,0,1.1905,1.2011,1.2022,1.2059,1.2138,1.2182,1.2236,1.2303,1.2334,1.2391,1.2437,1.2519,1.2527,1.2568,1.2599,1.2631,1.2664,1.2636,1.2639,1.2639,1.273,1.2722,1.2729,1.2678,1.2679,1.268,1.2724,0,1.1944,1.2042,1.2086,1.2164,1.2216,1.2253,1.23,1.2354,1.2392,1.2442,1.2484,1.2541,1.2549,1.2573,1.2607,1.2653,1.2683,1.265,1.2721,1.2723,1.2702,1.2737,1.2729,1.2768,1.2731,1.2732,1.2733,0,1.2001,1.2058,1.2142,1.2215,1.2238,1.228,1.2345,1.2393,1.2454,1.248,1.2525,1.2555,1.2614,1.2609,1.269,1.2666,1.2698,1.2725,1.2728,1.2735,1.2728,1.2745,1.2781,1.2787,1.2743,1.2742,1.2742,0,1.1998,1.2096,1.2159,1.2189,1.2276,1.2305,1.2342,1.2403,1.2441,1.2498,1.2523,1.2586,1.262,1.2669,1.2715,1.2707,1.2791,1.279,1.2814,1.2812,1.2829,1.2827,1.287,1.285,1.285,1.285,1.285,0,1.2036,1.2085,1.2159,1.2197,1.2254,1.2304,1.2358,1.2399,1.2453,1.2499,1.2535,1.2578,1.2637,1.2688,1.2724,1.2785,1.2801,1.2823,1.2832,1.2819,1.2816,1.284,1.2838,1.2852,1.2852,1.2851,1.2851,0,1.2042,1.2093,1.2164,1.2241,1.2261,1.2299,1.2365,1.2404,1.2444,1.2503,1.252,1.2583,1.2645,1.2696,1.2776,1.2801,1.2864,1.2875,1.2843,1.2848,1.2868,1.2865,1.2927,1.2938,1.2911,1.2912,1.2912,0,1.2062,1.2101,1.2182,1.2216,1.2253,1.2308,1.2346,1.2398,1.2436,1.251,1.254,1.2604,1.2658,1.2754,1.2807,1.2869,1.2882,1.2899,1.2891,1.2877,1.2881,1.2878,1.2882,1.2899,1.2899,1.2899,1.2899,0,1.2092,1.2115,1.217,1.2234,1.2279,1.2332,1.2385,1.2411,1.2472,1.2514,1.2577,1.2619,1.2702,1.2765,1.2832,1.2871,1.2895,1.2902,1.291,1.2897,1.2877,1.2888,1.2844,1.29,1.29,1.29,1.29,1.29,1.2105,1.2141,1.2204,1.2264,1.231,1.2359,1.2399,1.2445,1.2499,1.257,1.2597,1.2662,1.2723,1.2816,1.2855,1.2907,1.291,1.2922,1.2925,1.2927,1.2925,1.2869,1.292,1.292,1.292,1.292,1.292,0,1.2136,1.2179,1.2233,1.2307,1.2354,1.2374,1.2434,1.2472,1.2528,1.2583,1.2636,1.2709,1.277,1.2829,1.2893,1.2923,1.2936,1.2938,1.2936,1.2944,1.2919,1.2905,1.2927,1.2927,1.2927,1.2927,1.2927,1.2927,1.2158,1.222,1.2252,1.2337,1.2379,1.2443,1.2476,1.2522,1.2566,1.2646,1.2697,1.2735,1.2791,1.286,1.2918,1.2933,1.2955,1.2954,1.2973,1.2948,1.2946,1.2945,1.2932,1.2959,1.2959,1.2994,1.2994,1.2994]},{"header":{"parameterUnit":"m.s-1","parameterCategory":1,"la1":30.2991,"la2":30.254,"lo1":-89.0895,"lo2":-89.0444,"dy":0.0017,"dx":0.0017,"nx":28,"ny":28,"refTime":"2024-02-20T03:00:00:Z","depth":0,"parameterNumber":3,"parameterNumberName":"V-component_of_WINDS"},"data":[0,0,0,0,0,0,0,0,0,0,0,0,0,0,0,0,0,0,0,0,0,0,0,0,0,0,0,0,0,0,0,0,0,0,0,0,0,0,0,0,0,0,0,0,0,0,0,0,0,0,0,0,0,0,0,0,0,0,2.6602,2.6601,0,2.6584,2.6584,2.6584,2.6538,2.6537,2.6536,2.6535,2.6518,2.6518,2.6519,0,0,0,0,0,0,0,0,0,0,0,0,0,2.6597,2.6597,2.6602,2.6601,2.6601,2.6584,2.6584,2.6584,2.6538,2.6537,2.6536,2.6534,2.6518,2.6518,2.6519,0,0,0,0,0,0,0,0,0,0,0,0,0,2.6591,2.6597,2.6602,2.6576,2.6574,2.6584,2.6584,2.6583,2.6538,2.6537,2.6535,2.6534,2.6517,2.6518,2.6519,2.6553,0,0,2.6521,2.6521,0,0,0,0,0,0,0,0,2.6591,2.6591,2.658,2.6578,2.6575,2.6562,2.6576,2.6573,2.6539,2.6552,2.6535,2.6533,2.6534,2.6533,2.6533,2.6552,2.6551,2.6521,2.6521,2.6522,2.6522,0,0,0,0,0,0,0,2.6592,2.6592,2.6595,2.658,2.6577,2.6566,2.6564,2.6575,2.6551,2.6551,2.6547,2.6546,2.6532,2.6532,2.6532,2.6551,2.6521,2.6522,2.6522,2.6522,2.6596,2.6597,0,0,0,0,0,0,2.6596,2.6592,2.6595,2.6594,2.658,2.6567,2.6565,2.6568,2.6551,2.6547,2.6547,2.6544,2.6532,2.6531,2.6531,2.6569,2.6522,2.6522,2.6523,2.6594,2.6596,2.6598,0,0,0,0,0,0,2.6596,2.6596,2.6596,2.6592,2.6591,2.6569,2.6573,2.6568,2.6568,2.6548,2.6544,2.6551,2.6531,2.653,2.6547,2.6568,2.6523,2.6523,2.6593,2.6595,2.6597,2.6646,0,0,0,0,0,0,2.6596,2.6597,2.6609,2.6593,2.6592,2.6612,2.6574,2.6569,2.6569,2.6565,2.6551,2.6548,2.6529,2.6547,2.6548,2.6568,2.6524,2.6591,2.6594,2.6596,2.6642,2.6649,2.6655,0,0,0,0,0,2.6596,2.6624,2.661,2.6611,2.6607,2.6614,2.6613,2.6591,2.6571,2.6583,2.6571,2.6548,2.6566,2.6549,2.655,2.6571,2.6589,2.6593,2.6596,2.6639,2.6648,2.6655,0,0,0,0,0,0,2.6643,2.6621,2.6606,2.6629,2.6624,2.6606,2.6621,2.6601,2.6601,2.6597,2.657,2.6568,2.6588,2.6581,2.6563,2.6602,2.6574,2.6578,2.6606,2.6614,2.6621,2.6622,2.6524,0,0,0,0,0,2.6657,2.6664,2.6644,2.6667,2.6664,2.6643,2.6645,2.6629,2.6622,2.662,2.6608,2.6603,2.6607,2.661,2.6613,2.6641,2.6637,2.6656,2.6662,2.6668,2.6672,2.6685,2.6693,2.6609,2.6609,2.6609,0,0,2.6684,2.6673,2.6679,2.6676,2.6669,2.6678,2.6641,2.6652,2.6657,2.6621,2.6636,2.6628,2.662,2.6643,2.6652,2.6637,2.6694,2.6672,2.6677,2.6677,2.669,2.6698,2.6705,2.6612,2.6611,2.6611,0,0,2.6738,2.673,2.6748,2.6742,2.6733,2.6718,2.6723,2.6708,2.6701,2.6715,2.6688,2.6695,2.6703,2.6698,2.6697,2.6749,2.6728,2.6751,2.6786,2.68,2.6806,2.6812,2.683,2.6837,2.6755,2.6755,2.6755,0,2.6773,2.6783,2.6759,2.6771,2.677,2.6738,2.6756,2.6752,2.6744,2.6745,2.6728,2.6737,2.673,2.675,2.6763,2.6763,2.6767,2.6752,2.6807,2.6813,2.6818,2.6835,2.6842,2.6757,2.6757,2.6757,2.6757,0,2.6827,2.6835,2.685,2.6843,2.6844,2.6859,2.6838,2.6842,2.6826,2.6813,2.6828,2.6818,2.6818,2.6822,2.6807,2.6841,2.6832,2.6812,2.6783,2.6829,2.6844,2.6851,2.6761,2.676,2.676,2.6759,0,0,2.691,2.6889,2.6895,2.6891,2.6879,2.6884,2.6898,2.6897,2.6901,2.6898,2.6908,2.6915,2.6897,2.6895,2.6879,2.6891,2.6932,2.6869,2.6869,2.6881,2.6969,2.6984,2.6992,2.6919,2.692,2.6921,2.697,0,2.696,2.6981,2.696,2.6985,2.6992,2.6961,2.6973,2.6967,2.6955,2.696,2.6947,2.6953,2.6928,2.6927,2.6938,2.6925,2.695,2.6921,2.6928,2.6929,2.693,2.7,2.7016,2.7062,2.6975,2.6976,2.6977,0,2.7021,2.7019,2.7045,2.7031,2.7033,2.7044,2.7041,2.7046,2.7038,2.7029,2.7028,2.7008,2.702,2.6992,2.7009,2.699,2.6991,2.6986,2.6987,2.6986,2.6955,2.7001,2.7076,2.7083,2.6987,2.6986,2.6985,0,2.7078,2.7083,2.7098,2.7096,2.708,2.7088,2.7082,2.7073,2.7074,2.7072,2.7072,2.7072,2.7072,2.7073,2.7053,2.7035,2.7072,2.7043,2.7065,2.7065,2.7074,2.7073,2.715,2.7076,2.7076,2.7076,2.7075,0,2.7136,2.7153,2.7124,2.7134,2.7152,2.7128,2.7146,2.7137,2.7129,2.7137,2.711,2.7118,2.7092,2.7097,2.7082,2.7098,2.7098,2.7091,2.7087,2.7093,2.7094,2.7094,2.709,2.7077,2.7077,2.7077,2.7076,0,2.7203,2.7184,2.7199,2.7182,2.7178,2.7193,2.7178,2.7187,2.7174,2.7184,2.7185,2.7164,2.7169,2.715,2.7151,2.7141,2.7164,2.7155,2.7167,2.7164,2.7187,2.7185,2.7266,2.7275,2.7195,2.7196,2.7197,0,2.7241,2.7253,2.7237,2.724,2.7235,2.724,2.7241,2.7218,2.722,2.7212,2.7221,2.7224,2.7224,2.7233,2.7219,2.722,2.721,2.7238,2.721,2.7216,2.7209,2.7209,2.721,2.7244,2.7245,2.7246,2.7246,0,2.731,2.73,2.7302,2.73,2.7302,2.73,2.7296,2.73,2.7275,2.7279,2.7283,2.7283,2.7284,2.7287,2.7285,2.7278,2.7258,2.7255,2.726,2.7267,2.7273,2.7269,2.7182,2.7253,2.7253,2.7252,2.7252,2.7251,2.7363,2.7372,2.7363,2.7366,2.736,2.7357,2.7364,2.7352,2.7355,2.7354,2.734,2.7347,2.7338,2.7333,2.7329,2.7334,2.7321,2.7328,2.733,2.7332,2.7336,2.7273,2.7334,2.7334,2.7333,2.7333,2.7333,0,2.743,2.7423,2.7425,2.7421,2.7423,2.7404,2.7398,2.7402,2.7408,2.7402,2.7403,2.7407,2.741,2.7396,2.7396,2.7403,2.7394,2.7404,2.7403,2.7402,2.7348,2.7343,2.7411,2.7411,2.7411,2.7411,2.7411,2.7411,2.7466,2.748,2.7469,2.7481,2.7473,2.7479,2.7478,2.7475,2.747,2.7476,2.7478,2.7468,2.7459,2.7458,2.746,2.7455,2.7457,2.747,2.7463,2.7413,2.7405,2.7398,2.7393,2.7471,2.7471,2.7515,2.7516,2.7516]}]]